{"data":{"norad_id":32487,"epoch":"2026-05-25T03:44:24.780768Z","epoch_age_seconds":51694,"freshness":"FRESH","line1":"1 32487U 08006A   26145.15584237 -.00000011  00000+0  00000+0 0  9992","line2":"2 32487   0.0279 259.1072 0002576 172.7981 226.1977  1.00273425 67084","mean_motion":1.00273425,"eccentricity":0.0002576,"inclination_deg":0.0279,"raan_deg":259.1072,"arg_perigee_deg":172.7981,"mean_anomaly_deg":226.1977,"bstar":0,"rev_number":6708,"period_min":1436.0734162616,"perigee_km":35775.2736994,"apogee_km":35796.996732446,"semimajor_km":42164.272215923,"source":"CELESTRAK","updated_at":"2026-05-25T13:38:13.856279Z"}}